Weather History for Crookston, MN

Change the Weather History Date:

Thursday, November 29, 2012

  Actual Average Record
Temperature  
Mean Temperature 14 °F -  
Max Temperature 19 °F 26 °F 39 °F (2002)
Min Temperature 10 °F 13 °F -5 °F (2007)
Degree Days  
Heating Degree Days 50    
Moisture  
Dew Point 10 °F    
Average Humidity 77    
Maximum Humidity 86    
Minimum Humidity 68    
Precipitation  
Precipitation 0.00 in - - ()
Sea Level Pressure  
Sea Level Pressure 30.20 in    
Wind  
Wind Speed 11 mph (ENE)    
Max Wind Speed 15 mph    
Max Gust Speed 20 mph    
Visibility 10 miles    
Events      
Averages and records for this station are not official NWS values.
T = Trace of Precipitation, MM = Missing Value Source: NWS Daily Summary

Daily Weather History Graph

Daily Weather History Graph

Search for Another Location

Airport:

Trip Planner

Search our weather history database for the weather conditions in past years. The results will help you decide how hot, cold, wet, or windy it might be!

Date:

Astronomy

Nov. 29, 2012 Rise Set
Actual Time 7:52 AM CST 4:36 PM CST
Civil Twilight 7:17 AM CST 5:12 PM CST
Nautical Twilight 6:38 AM CST 5:50 PM CST
Astronomical Twilight 6:01 AM CST 6:28 PM CST
Moon 5:40 PM CST (11/29) 8:41 AM CST (11/29)
Length of Visible Light 9h 54m
Length of Day
8h 44m
Full, 99% of the Moon is Illuminated
Nov 29
Full
Dec 6
Last Quarter
Dec 13
New
Dec 19
First Quarter
Dec 28
Full

Hourly Weather History & Observations

Time (CST) Temp. Windchill Dew Point Humidity Pressure Visibility Wind Dir Wind Speed Gust Speed Precip Events Conditions
12:15 AM 15.8 °F 2.1 °F 10.4 °F 79% 30.18 in 10.0 mi NNE 12.7 mph - N/A   Scattered Clouds
12:35 AM 14.0 °F 1.2 °F 10.4 °F 86% 30.18 in 10.0 mi NE 10.4 mph - N/A   Clear
12:54 AM 14.0 °F -0.2 °F 8.6 °F 79% 30.18 in 10.0 mi NNE 12.7 mph 19.6 mph N/A   Clear
1:15 AM 12.2 °F -2.5 °F 8.6 °F 85% 30.17 in 10.0 mi NE 12.7 mph - N/A   Clear
1:34 AM 12.2 °F -1.8 °F 6.8 °F 79% 30.18 in 10.0 mi NNE 11.5 mph - N/A   Clear
1:54 AM 12.2 °F -1.0 °F 6.8 °F 79% 30.19 in 10.0 mi NNE 10.4 mph - N/A   Clear
2:15 AM 12.2 °F -0.2 °F 6.8 °F 79% 30.19 in 10.0 mi NNE 9.2 mph - N/A   Clear
2:34 AM 10.4 °F -2.4 °F 6.8 °F 85% 30.19 in 10.0 mi NNE 9.2 mph - N/A   Scattered Clouds
2:55 AM 12.2 °F 0.7 °F 6.8 °F 79% 30.20 in 10.0 mi NE 8.1 mph - N/A   Overcast
3:15 AM 12.2 °F 0.7 °F 6.8 °F 79% 30.21 in 10.0 mi NE 8.1 mph - N/A   Overcast
3:34 AM 12.2 °F -1.0 °F 6.8 °F 79% 30.19 in 10.0 mi NE 10.4 mph - N/A   Overcast
3:55 AM 12.2 °F -1.0 °F 8.6 °F 85% 30.19 in 10.0 mi NE 10.4 mph - N/A   Overcast
4:14 AM 12.2 °F -1.0 °F 8.6 °F 85% 30.19 in 10.0 mi NE 10.4 mph - N/A   Overcast
4:34 AM 12.2 °F 0.7 °F 8.6 °F 85% 30.19 in 10.0 mi ENE 8.1 mph - N/A   Overcast
4:55 AM 12.2 °F -1.0 °F 6.8 °F 79% 30.19 in 10.0 mi ENE 10.4 mph - N/A   Overcast
5:14 AM 12.2 °F -0.2 °F 6.8 °F 79% 30.20 in 10.0 mi NE 9.2 mph - N/A   Overcast
5:34 AM 12.2 °F -0.2 °F 6.8 °F 79% 30.20 in 10.0 mi NE 9.2 mph - N/A   Overcast
5:55 AM 12.2 °F -1.0 °F 6.8 °F 79% 30.20 in 10.0 mi NE 10.4 mph - N/A   Overcast
6:14 AM 12.2 °F -1.8 °F 6.8 °F 79% 30.20 in 10.0 mi NE 11.5 mph - N/A   Overcast
6:35 AM 12.2 °F -0.2 °F 6.8 °F 79% 30.20 in 10.0 mi NE 9.2 mph - N/A   Overcast
6:55 AM 10.4 °F -0.4 °F 6.8 °F 85% 30.20 in 10.0 mi NE 6.9 mph - N/A   Scattered Clouds
7:14 AM 10.4 °F -1.5 °F 6.8 °F 85% 30.20 in 10.0 mi NE 8.1 mph - N/A   Scattered Clouds
7:35 AM 10.4 °F -1.5 °F 6.8 °F 85% 30.21 in 10.0 mi NE 8.1 mph - N/A   Scattered Clouds
7:55 AM 10.4 °F -0.4 °F 6.8 °F 85% 30.21 in 10.0 mi NE 6.9 mph - N/A   Clear
8:14 AM 10.4 °F 0.8 °F 6.8 °F 85% 30.23 in 10.0 mi NNE 5.8 mph - N/A   Clear
8:35 AM 10.4 °F -0.4 °F 6.8 °F 85% 30.24 in 10.0 mi NNE 6.9 mph - N/A   Clear
8:55 AM 10.4 °F -0.4 °F 6.8 °F 85% 30.24 in 10.0 mi NNE 6.9 mph - N/A   Clear
9:14 AM 10.4 °F -0.4 °F 6.8 °F 85% 30.24 in 10.0 mi NNE 6.9 mph - N/A   Clear
9:35 AM 12.2 °F -0.2 °F 8.6 °F 85% 30.25 in 10.0 mi NE 9.2 mph - N/A   Clear
9:54 AM 14.0 °F 2.0 °F 8.6 °F 79% 30.25 in 10.0 mi ENE 9.2 mph - N/A   Clear
10:15 AM 15.8 °F 3.4 °F 8.6 °F 73% 30.24 in 10.0 mi East 10.4 mph - N/A   Clear
10:35 AM 15.8 °F 1.4 °F 10.4 °F 79% 30.24 in 10.0 mi East 13.8 mph - N/A   Clear
10:54 AM 15.8 °F 2.7 °F 10.4 °F 79% 30.24 in 10.0 mi East 11.5 mph - N/A   Clear
11:15 AM 17.6 °F 3.2 °F 10.4 °F 73% 30.23 in 10.0 mi ENE 15.0 mph - N/A   Clear
11:35 AM 17.6 °F 5.0 °F 10.4 °F 73% 30.22 in 10.0 mi ENE 11.5 mph - N/A   Clear
11:54 AM 17.6 °F 4.3 °F 10.4 °F 73% 30.21 in 10.0 mi ENE 12.7 mph - N/A   Clear
12:15 PM 17.6 °F 4.3 °F 10.4 °F 73% 30.21 in 10.0 mi East 12.7 mph - N/A   Clear
12:34 PM 17.6 °F 5.0 °F 10.4 °F 73% 30.21 in 10.0 mi East 11.5 mph - N/A   Clear
12:54 PM 17.6 °F 4.3 °F 8.6 °F 68% 30.21 in 10.0 mi East 12.7 mph - N/A   Clear
1:15 PM 17.6 °F 4.3 °F 8.6 °F 68% 30.20 in 10.0 mi ENE 12.7 mph - N/A   Clear
1:35 PM 17.6 °F 5.0 °F 8.6 °F 68% 30.21 in 10.0 mi ENE 11.5 mph 16.1 mph N/A   Clear
1:54 PM 17.6 °F 5.7 °F 8.6 °F 68% 30.22 in 10.0 mi ENE 10.4 mph - N/A   Scattered Clouds
2:15 PM 17.6 °F 5.7 °F 8.6 °F 68% 30.20 in 10.0 mi ENE 10.4 mph - N/A   Overcast
2:34 PM 17.6 °F 3.2 °F 8.6 °F 68% 30.18 in 10.0 mi ENE 15.0 mph 19.6 mph N/A   Mostly Cloudy
2:55 PM 17.6 °F 3.2 °F 10.4 °F 73% 30.18 in 10.0 mi ENE 15.0 mph 19.6 mph N/A   Scattered Clouds
3:15 PM 17.6 °F 6.4 °F 10.4 °F 73% 30.18 in 10.0 mi ENE 9.2 mph 17.3 mph N/A   Scattered Clouds
3:34 PM 17.6 °F 5.0 °F 10.4 °F 73% 30.18 in 10.0 mi ENE 11.5 mph 17.3 mph N/A   Clear
3:55 PM 17.6 °F 5.7 °F 10.4 °F 73% 30.19 in 10.0 mi East 10.4 mph - N/A   Clear
4:15 PM 17.6 °F 3.7 °F 10.4 °F 73% 30.18 in 10.0 mi East 13.8 mph 18.4 mph N/A   Clear
4:34 PM 17.6 °F 5.0 °F 10.4 °F 73% 30.18 in 10.0 mi ENE 11.5 mph 16.1 mph N/A   Clear
4:55 PM 17.6 °F 6.4 °F 10.4 °F 73% 30.18 in 10.0 mi East 9.2 mph - N/A   Clear
5:15 PM 17.6 °F 4.3 °F 10.4 °F 73% 30.18 in 10.0 mi East 12.7 mph - N/A   Clear
5:34 PM 17.6 °F 4.3 °F 10.4 °F 73% 30.18 in 10.0 mi East 12.7 mph - N/A   Clear
5:55 PM 17.6 °F 6.4 °F 10.4 °F 73% 30.19 in 10.0 mi East 9.2 mph - N/A   Clear
6:15 PM 17.6 °F 5.7 °F 10.4 °F 73% 30.19 in 10.0 mi East 10.4 mph - N/A   Clear
6:34 PM 17.6 °F 8.2 °F 10.4 °F 73% 30.20 in 10.0 mi East 6.9 mph - N/A   Clear
6:55 PM 17.6 °F 4.3 °F 10.4 °F 73% 30.19 in 10.0 mi East 12.7 mph 16.1 mph N/A   Clear
7:15 PM 17.6 °F 3.7 °F 10.4 °F 73% 30.18 in 10.0 mi East 13.8 mph - N/A   Clear
7:34 PM 17.6 °F 4.3 °F 12.2 °F 79% 30.18 in 10.0 mi East 12.7 mph - N/A   Clear
7:55 PM 17.6 °F 5.0 °F 12.2 °F 79% 30.19 in 10.0 mi East 11.5 mph - N/A   Clear
8:14 PM 19.4 °F 8.6 °F 12.2 °F 74% 30.19 in 10.0 mi East 9.2 mph - N/A   Clear
8:34 PM 19.4 °F 8.6 °F 12.2 °F 74% 30.19 in 10.0 mi East 9.2 mph - N/A   Scattered Clouds
8:55 PM 19.4 °F 8.6 °F 12.2 °F 74% 30.20 in 10.0 mi East 9.2 mph - N/A   Scattered Clouds
9:14 PM 19.4 °F 7.2 °F 12.2 °F 74% 30.20 in 10.0 mi East 11.5 mph - N/A   Scattered Clouds
9:35 PM 19.4 °F 7.2 °F 12.2 °F 74% 30.20 in 10.0 mi East 11.5 mph - N/A   Mostly Cloudy
9:55 PM 19.4 °F 7.9 °F 12.2 °F 74% 30.20 in 10.0 mi East 10.4 mph - N/A   Scattered Clouds
10:14 PM 19.4 °F 9.5 °F 14.0 °F 80% 30.20 in 10.0 mi East 8.1 mph - N/A   Clear
10:35 PM 19.4 °F 8.6 °F 14.0 °F 80% 30.20 in 10.0 mi East 9.2 mph - N/A   Clear
10:55 PM 19.4 °F 9.5 °F 14.0 °F 80% 30.20 in 10.0 mi East 8.1 mph - N/A   Clear
11:14 PM 19.4 °F 8.6 °F 14.0 °F 80% 30.20 in 10.0 mi East 9.2 mph - N/A   Clear
11:35 PM 19.4 °F 7.9 °F 14.0 °F 80% 30.20 in 10.0 mi East 10.4 mph - N/A   Clear
11:55 PM 19.4 °F 10.4 °F 14.0 °F 80% 30.20 in 10.0 mi East 6.9 mph - N/A   Scattered Clouds